Pagrindinis puslapis
METAR-TAF:

METAR-TAF

Oro uostai :

Oro pajėgų bazė

Ismailija, Egiptas

platuma: 30-35-54N, ilguma: 032-14-13E, Aukštis: 13 m

Dabartinis oras

Ataskaita buvo paskelbta 50 minutes, ne 11:00 UTC
Vėjas 10 kt iš Pietų
Temperatūra 22°C
Drėgmė 35%
Slėgis 1012 hPa
Matomumas 10 km arba daugiau
nėra debesų žemiau 1500 m ir nėra kamuolinių lietaus debesų

METAR: HEIS 271100Z 18010KT CAVOK 22/06 Q1012

Laikas: 13:50 (11:50 UTC)


TAF: trūkstamas

Orai ataskaitas ir orų prognozės (METAR, TAF).

turimą stotys yra geltonos ir raudonos taškus žemėlapyje.

Perkelti pele per norėdami pamatyti stoties vardą.

Tada spustelėkite, norėdami matyti oro stebėjimo ir prognozės.

Norėdami pakeisti žemėlapį: spustelėkite ant žalios mygtukų su juodo kryžiaus žemyn,; žalią mygtuką su brūkšneliu, jei norite nutolinti; arba žalių rodyklių gretimoms žemėlapius.


METAR-TAF: